GFSCGP_con_3kmhel_102.txt.gz
Helicity
81 94 71 58 66 34 8 45 38 47 26 48 62 47 19 63 68 98 129 101 114 118 92 241 293 332 345 347 348 321 302 301 512 552 482 379 352 222 155 129 120 113 144 132
100 90 98 67 51 44 46 38 -37 1 28 48 50 55 54 40 60 57 81 83 87 151 168 254 284 351 321 340 389 275 315 474 554 508 424 334 313 213 139 104 100 99 130 134
169 142 97 63 56 79 72 74 83 28 22 47 57 49 59 70 58 35 42 53 114 118 169 206 355 378 361 324 374 406 473 461 505 489 448 383 368 267 196 105 85 75 113 121
128 157 80 94 90 101 117 127 126 102 55 -20 76 -1 5 54 124 84 68 59 109 142 173 226 336 383 261 237 325 445 610 444 458 404 301 283 308 272 116 128 81 59 79 114
116 79 66 113 131 131 268 182 273 177 121 78 41 107 22 25 147 157 144 100 138 149 232 219 301 399 212 70 149 433 542 454 381 288 243 264 268 143 186 158 160 59 67 105
98 83 98 139 190 184 250 392 119 129 146 97 72 93 23 71 154 239 209 176 113 84 142 138 216 226 186 222 250 420 407 351 201 208 231 242 142 120 185 203 218 117 91 117
87 69 77 130 195 207 213 213 57 28 61 189 28 42 24 59 116 112 182 139 53 163 162 203 249 296 259 246 257 308 244 211 215 213 220 190 179 260 217 237 153 127 168 169
113 43 90 111 164 204 188 192 95 60 102 187 242 112 14 138 63 47 125 112 155 267 252 293 220 195 215 194 213 197 220 306 284 216 110 235 288 258 103 120 113 105 161 180
98 130 124 118 113 123 123 144 84 80 99 73 194 225 130 58 -52 74 137 254 282 262 231 250 240 202 144 146 188 249 267 262 219 203 248 213 212 106 118 153 122 133 188 209
103 124 86 119 50 64 96 201 92 80 87 57 115 114 197 162 114 32 56 143 274 228 186 183 158 170 177 198 224 198 158 105 124 152 130 158 144 149 158 162 189 234 307 303
73 131 140 63 52 83 97 75 116 74 69 89 102 124 165 165 130 3 -4 93 81 137 77 86 93 95 131 171 189 171 106 110 147 166 168 200 224 228 252 267 296 323 314 297
63 104 147 107 78 65 98 55 84 -1 27 64 70 98 140 115 92 71 -26 -54 -4 -1 -12 59 80 94 126 112 139 167 166 186 175 190 222 219 240 243 283 281 288 259 302 301
74 78 57 13 26 31 72 112 22 81 43 -6 9 28 118 76 61 51 32 39 -12 2 44 66 91 94 103 132 133 164 163 180 204 227 235 234 235 247 241 252 224 232 221 225
72 83 112 119 123 95 78 90 95 70 61 16 20 19 0 43 33 33 31 -7 -6 14 23 40 63 74 99 113 136 160 172 185 204 221 228 236 215 210 205 221 227 219 201 201
55 61 86 121 134 88 103 104 45 33 37 44 20 -13 -13 36 26 22 13 -1 1 4 6 23 39 61 86 109 117 133 148 164 172 198 205 196 196 205 213 223 218 205 202 199
37 38 14 45 46 3 41 22 38 28 23 46 41 5 -19 10 10 0 31 29 17 15 24 37 41 53 63 78 105 127 128 136 152 166 169 168 193 205 206 201 199 210 215 209
35 55 23 35 6 17 34 8 19 18 23 30 40 41 28 67 45 3 -11 26 37 46 51 56 51 50 53 76 91 104 106 112 142 146 149 162 165 176 176 182 198 200 189 174
50 60 45 28 35 72 25 17 35 32 14 16 30 33 50 49 43 22 -12 30 45 75 92 92 95 101 95 96 120 110 116 142 152 157 161 165 176 185 182 184 174 154 140 136
64 71 51 59 58 24 20 28 33 35 19 16 38 30 28 28 14 7 -1 37 77 85 99 127 128 127 136 146 135 174 168 162 170 169 182 183 180 183 177 164 144 125 110 92
74 40 62 70 63 63 45 27 26 47 9 20 35 34 35 25 33 2 24 95 167 179 180 194 188 179 188 152 170 188 166 181 192 189 188 181 177 176 172 152 131 102 89 71
116 80 72 66 70 30 39 47 51 40 14 24 33 30 53 47 26 65 113 188 220 209 218 199 200 197 162 155 172 181 173 182 158 161 164 180 178 177 157 137 110 84 81 83
95 109 81 104 98 46 68 81 64 29 29 31 41 39 50 64 99 122 136 187 219 242 223 219 236 209 165 155 185 174 179 155 170 168 171 180 190 172 137 120 98 85 90 84
144 148 124 103 78 85 57 47 44 45 48 38 42 47 75 109 93 110 140 168 187 216 209 200 216 213 179 162 158 183 159 172 186 204 199 191 182 163 131 110 94 98 92 81
158 127 143 107 103 97 74 77 60 52 50 60 56 61 96 100 120 119 151 167 191 199 211 188 204 192 171 158 174 171 170 178 198 201 186 171 167 141 121 115 105 93 82 75
177 167 149 48 73 67 66 74 79 110 122 102 86 58 68 123 120 135 147 167 173 189 190 185 193 183 165 176 184 176 174 172 183 163 144 137 132 119 110 102 90 85 78 86
334 256 204 105 106 85 79 123 109 126 105 97 99 89 70 114 136 135 148 159 189 201 184 207 199 197 178 183 191 172 152 145 138 135 120 125 118 101 96 86 78 96 81 67

GFSCGP_con_3kmhel_105.txt.gz
Helicity
143 84 80 110 93 102 49 40 47 79 76 44 47 62 80 103 76 73 97 100 123 121 118 136 245 269 257 285 269 208 85 39 164 196 214 316 210 205 129 82 89 124 90 91
106 54 105 110 82 67 47 65 57 44 26 -38 10 27 51 75 98 77 65 81 97 131 138 125 193 335 302 406 329 232 25 95 205 272 297 333 323 239 156 85 104 108 96 107
135 112 87 88 81 65 114 46 36 36 -52 21 -11 -6 62 57 59 75 93 63 73 102 111 159 213 272 277 346 316 229 121 121 354 425 512 505 502 329 194 156 104 57 90 122
121 102 89 91 95 77 134 98 115 73 78 61 49 45 51 52 65 134 153 144 126 134 105 167 227 243 285 313 266 265 229 249 378 482 509 483 419 316 222 231 109 63 27 97
96 75 58 122 134 153 220 146 97 95 76 106 30 70 11 40 99 207 252 246 195 129 104 132 184 259 332 378 345 428 397 372 366 466 514 471 387 271 220 123 64 103 28 86
96 71 87 122 150 131 137 133 83 91 116 149 91 79 42 3 84 204 263 248 147 103 103 136 177 187 270 261 375 353 480 334 373 468 569 381 255 239 193 85 100 40 66 24
72 48 54 114 133 76 62 46 50 9 38 158 72 62 64 91 44 89 228 221 147 105 108 118 125 135 144 177 168 232 301 372 341 341 308 282 311 183 55 69 79 127 97 70
82 38 90 74 123 118 107 82 53 88 105 164 111 89 38 48 37 25 126 167 144 124 115 127 102 108 172 192 234 197 207 296 348 261 243 132 77 94 121 194 143 134 88 6
70 93 76 128 86 93 77 91 74 88 134 92 180 235 176 91 14 110 157 187 224 226 196 163 120 126 145 217 161 180 216 270 261 226 77 100 103 106 172 94 90 91 87 87
88 98 82 97 61 69 67 126 87 46 78 62 130 138 264 170 62 139 118 169 170 207 213 217 214 176 181 203 201 179 112 150 177 123 207 122 109 87 82 72 81 87 113 171
87 116 94 59 65 77 58 57 86 98 71 84 131 129 171 175 116 112 67 109 141 151 131 73 103 114 59 114 193 237 155 120 152 148 125 114 94 95 93 97 141 155 203 227
73 90 112 90 66 62 93 73 58 91 103 94 88 115 131 128 146 70 -10 131 43 49 101 107 87 176 154 140 156 134 116 122 134 133 135 134 134 158 175 208 195 232 269 271
79 59 54 37 36 35 44 82 76 85 100 106 63 90 84 82 70 55 46 -12 -9 111 31 36 85 101 102 123 116 119 117 114 109 141 154 165 184 213 223 229 239 264 259 273
53 72 95 98 88 48 52 84 47 68 89 73 80 94 81 50 31 40 41 26 -4 15 16 25 53 62 66 76 88 96 107 112 122 156 179 196 198 199 215 227 227 221 223 235
57 59 78 71 87 46 86 100 46 54 63 69 55 57 47 50 43 22 24 12 11 1 -1 8 15 24 41 67 79 89 89 95 100 139 157 156 165 175 188 208 216 214 218 209
26 46 39 42 51 49 47 35 52 42 50 60 57 46 35 16 15 15 9 13 8 5 1 -1 3 21 36 45 60 80 91 106 120 140 146 148 170 184 199 201 207 217 219 221
47 60 53 44 28 18 53 41 29 26 28 34 45 41 50 31 22 2 3 23 28 20 11 7 15 25 25 36 46 80 91 98 133 143 150 165 176 195 196 191 201 208 211 207
87 78 69 45 35 83 55 9 26 31 20 23 28 33 39 42 19 3 -5 5 23 36 34 35 46 46 40 43 78 97 103 119 132 138 140 144 156 163 159 164 167 163 158 157
72 94 60 58 62 31 37 45 38 37 12 35 30 36 23 22 -1 -18 1 19 37 39 47 58 62 60 75 89 89 122 120 115 121 124 129 127 132 134 137 150 143 135 137 128
119 81 92 81 71 61 57 47 40 34 21 27 44 34 41 31 25 -4 20 65 81 85 94 115 104 117 135 109 121 143 118 122 122 111 122 124 128 135 140 135 136 131 112 95
188 156 128 105 93 44 37 69 78 66 40 31 30 31 64 52 31 11 53 102 130 137 159 159 161 152 132 120 138 143 123 129 116 129 130 144 150 150 144 143 134 123 116 106
177 173 140 159 143 56 84 124 100 54 41 36 37 37 47 46 59 76 89 135 173 204 190 173 182 161 141 138 154 139 139 115 131 142 157 165 167 158 149 148 130 123 116 96
180 200 180 155 91 102 71 51 49 61 68 58 52 40 52 77 68 87 102 130 153 174 189 170 185 190 166 148 137 150 115 131 143 160 168 156 156 155 144 139 132 125 112 97
155 179 201 178 115 99 71 67 68 70 56 64 72 75 80 75 81 96 126 135 165 180 185 185 212 212 184 156 160 137 138 138 148 155 142 135 140 140 139 136 133 122 101 81
168 216 216 162 158 108 70 83 70 89 91 109 111 90 79 95 79 109 119 133 149 169 175 178 198 204 177 162 166 144 135 136 140 134 124 125 127 123 120 124 119 116 95 74
348 333 302 195 172 60 -3 57 105 134 125 101 111 100 80 88 97 112 109 124 162 173 184 195 199 221 181 174 163 150 136 130 115 121 118 119 118 115 113 111 104 91 76 41

GFSCGP_con_3kmhel_108.txt.gz
Helicity
82 60 46 53 86 103 81 132 77 69 22 -39 -20 -50 93 101 78 57 92 118 119 72 81 109 152 168 141 179 178 202 182 150 143 169 147 106 107 135 120 81 62 56 66 74
56 55 68 85 86 108 108 167 140 57 1 17 8 -23 15 94 94 96 94 108 114 114 114 99 117 171 128 245 250 235 233 142 127 123 176 205 193 183 188 166 133 56 84 86
92 76 53 80 87 94 138 136 148 98 54 54 51 11 80 99 117 125 120 127 109 95 127 107 100 175 220 241 308 267 251 95 101 73 193 235 263 283 246 239 227 155 113 64
77 81 71 73 102 83 69 120 82 73 86 53 45 47 -0 105 98 97 133 168 163 151 103 83 79 144 217 238 342 323 211 176 186 306 213 221 288 385 349 372 387 382 276 55
79 64 63 73 125 108 139 131 46 69 98 97 78 37 21 43 64 147 169 148 201 204 113 78 69 110 159 256 319 281 246 208 370 325 275 299 330 461 539 470 431 206 59 29
84 57 82 98 112 79 119 123 61 46 80 63 71 54 36 49 47 91 102 127 179 223 104 60 55 95 150 213 228 269 298 293 400 383 387 371 401 536 429 280 173 58 -31 -59
46 52 61 79 79 66 43 50 2 30 48 107 124 59 95 101 62 3 86 100 180 168 144 85 92 96 139 190 225 239 291 340 357 424 330 376 424 113 53 119 54 30 -22 -21
58 33 74 63 108 120 82 67 71 70 80 114 114 147 146 59 42 94 101 155 154 145 190 152 129 129 173 197 178 163 216 269 288 410 474 440 229 39 -88 -118 45 53 54 52
59 63 54 84 63 82 78 83 73 101 158 101 151 167 357 124 204 105 146 204 227 202 168 137 165 148 114 147 134 152 168 143 180 210 292 61 8 92 36 42 100 140 74 66
69 58 64 70 64 54 74 73 80 74 92 65 113 212 216 160 205 138 136 228 222 187 196 169 163 158 179 149 132 116 122 125 118 -13 -17 -14 70 87 90 70 43 37 63 101
87 94 55 55 61 71 54 64 89 108 124 114 137 137 176 189 105 194 105 138 186 180 168 151 181 168 127 184 202 153 87 85 73 165 109 97 71 48 49 53 56 55 86 104
62 84 96 88 63 41 67 78 92 112 96 130 150 94 93 118 137 166 119 103 101 87 134 118 139 179 155 97 113 149 146 138 139 113 102 85 70 75 89 84 110 128 152 178
73 61 55 51 53 38 58 67 79 92 104 98 98 96 79 71 72 73 86 28 86 44 67 54 78 95 92 94 92 107 126 117 108 98 93 102 123 144 173 178 173 176 195 222
61 77 102 108 87 61 52 52 68 71 81 82 100 78 53 29 39 40 40 39 -21 14 43 84 69 56 69 70 65 73 78 67 76 121 144 151 146 150 163 174 186 195 192 200
74 61 81 90 74 69 78 79 53 74 76 85 56 68 48 31 27 28 32 23 -5 1 35 15 7 9 9 34 43 55 68 84 93 136 152 148 149 163 178 192 190 192 210 213
71 54 57 61 58 61 37 58 47 59 65 66 60 40 49 28 24 16 17 19 9 -5 -7 -11 -11 -4 12 27 46 67 81 96 103 115 111 105 122 130 134 137 145 160 167 175
71 80 61 44 45 18 30 55 56 44 50 54 58 44 33 36 35 20 13 20 16 5 3 2 6 12 17 32 40 67 60 57 85 79 69 80 87 105 118 127 141 153 164 164
136 103 84 53 56 75 56 33 37 46 38 52 27 25 33 7 -0 9 7 21 21 20 17 11 18 23 31 39 68 76 82 91 92 94 98 102 111 122 125 140 147 137 131 131
137 134 103 78 61 40 35 62 72 70 34 63 43 33 14 21 -7 -28 18 19 23 26 29 33 33 33 50 65 71 100 102 91 97 95 96 96 106 114 113 121 112 103 103 97
179 167 144 110 75 42 52 42 62 63 31 45 54 41 40 30 18 7 6 30 54 64 74 81 72 77 90 72 87 118 97 101 97 76 84 95 106 115 115 105 102 103 106 101
135 130 135 147 112 48 55 73 82 90 51 53 48 42 73 47 30 12 31 48 69 97 114 108 112 114 104 96 113 127 111 107 73 85 102 119 123 122 112 106 107 112 117 129
109 123 114 155 157 59 72 135 113 58 60 52 47 45 57 47 39 37 42 66 112 154 152 147 173 150 134 131 148 131 120 81 98 118 127 129 121 113 107 114 112 125 133 126
120 129 127 135 117 100 79 54 50 58 57 55 62 55 57 71 54 63 62 89 114 145 159 152 185 182 162 159 141 145 89 97 119 131 129 111 109 105 103 111 114 119 123 122
152 162 159 127 115 134 56 30 29 72 61 62 61 68 79 66 72 77 97 109 144 158 163 162 196 198 197 179 160 130 105 115 130 129 107 96 96 103 91 95 108 114 114 105
196 209 190 144 105 158 113 116 58 56 77 78 89 86 90 109 89 99 106 118 132 152 165 169 182 200 195 181 164 126 115 121 124 105 93 94 90 82 76 85 84 95 96 100
415 350 330 206 153 180 110 88 87 88 73 66 109 117 116 110 101 109 104 119 152 164 177 182 186 216 191 172 152 123 109 116 103 105 89 81 81 70 74 73 75 73 75 62

GFSCGP_con_3kmhel_111.txt.gz
Helicity
36 46 18 32 90 101 117 144 126 87 45 82 33 -22 -26 84 74 65 99 146 91 83 107 110 65 130 148 124 136 151 177 133 120 168 256 213 158 111 97 83 96 102 87 63
45 61 56 71 91 84 81 79 93 49 101 76 33 50 71 154 153 99 127 130 157 130 149 75 66 64 119 154 150 142 137 132 105 174 202 182 157 138 152 160 173 177 143 70
78 66 75 88 86 57 63 101 77 84 79 111 34 39 43 121 92 121 166 160 142 126 151 130 48 45 86 157 195 151 135 155 188 267 257 218 183 205 239 273 314 273 255 146
73 56 59 77 104 86 63 125 66 25 6 -1 46 48 24 9 87 157 193 180 150 138 112 110 86 40 69 109 212 190 218 196 229 251 286 170 260 252 296 410 439 465 547 232
61 44 51 76 93 116 136 99 81 82 46 59 54 91 73 -25 68 167 201 125 102 105 97 106 80 50 63 95 173 234 243 210 254 319 151 173 285 274 313 405 492 590 591 208
55 38 69 77 99 94 112 93 81 111 79 80 85 104 67 71 36 159 129 79 102 94 84 96 59 21 33 90 112 169 237 263 285 357 315 302 367 356 342 378 509 348 106 48
45 40 44 61 65 57 45 49 5 65 46 99 143 126 213 72 116 99 85 70 90 112 166 92 72 48 43 43 79 137 198 278 258 320 272 300 350 251 195 62 1 185 33 51
56 48 40 37 73 90 80 56 59 74 87 99 85 150 260 226 103 96 74 89 104 165 160 187 136 58 42 111 178 196 219 210 168 110 110 221 82 -10 -42 -39 -102 -59 -23 -8
55 51 42 57 44 56 78 80 87 90 133 79 131 203 354 94 124 191 142 190 169 170 171 168 184 113 96 121 121 118 99 111 95 29 -1 7 -3 -59 -133 -51 -54 14 22 18
64 49 50 44 49 51 68 82 87 78 100 59 108 159 227 193 204 144 130 160 200 193 158 179 228 191 175 159 124 88 66 4 72 46 -114 -80 -34 3 54 74 58 51 30 6
58 69 47 46 50 56 45 49 77 88 92 114 115 168 166 201 140 86 102 111 173 197 181 151 137 174 183 182 134 94 165 108 86 51 45 65 16 74 66 62 48 37 55 62
34 62 78 65 34 37 53 57 51 83 93 110 105 118 119 91 110 69 59 84 103 131 137 137 131 117 142 154 117 151 134 125 80 68 97 107 102 102 90 77 81 77 101 102
48 53 54 53 56 48 71 73 65 88 92 92 94 98 94 78 62 70 50 67 68 78 91 75 121 118 104 106 77 114 89 90 82 116 109 126 113 115 111 100 102 113 122 133
63 76 94 100 76 52 56 67 70 77 80 91 83 74 67 53 50 37 33 83 47 18 18 23 23 62 65 74 84 84 78 69 71 96 105 96 92 90 93 108 123 128 124 135
92 68 86 90 95 74 69 61 73 92 74 72 75 75 56 41 44 33 30 23 3 10 -7 34 40 53 58 56 63 61 76 82 79 95 105 96 90 96 105 125 136 141 153 154
82 84 49 52 52 72 45 57 62 54 52 55 59 47 63 35 23 30 23 12 6 3 20 31 43 56 56 58 73 71 68 73 83 102 103 97 111 121 129 132 138 154 159 162
90 98 70 46 42 15 39 49 72 58 42 58 57 44 58 47 32 19 16 17 16 15 15 21 31 38 39 48 50 71 71 76 105 106 102 111 117 127 126 123 126 129 133 126
134 110 89 58 28 57 35 28 32 41 28 50 34 31 45 31 22 10 6 12 19 28 29 30 39 49 51 57 77 82 79 87 90 91 92 93 103 110 104 114 120 112 104 108
131 138 78 67 50 29 42 56 67 64 29 52 38 38 39 30 11 -9 10 9 28 32 30 35 42 54 67 74 77 99 90 80 88 90 94 93 92 99 97 96 89 90 92 90
148 127 96 105 80 49 44 32 36 52 24 33 38 39 44 43 39 15 18 19 31 45 63 78 73 77 88 79 91 116 104 109 108 88 89 87 86 91 91 89 92 90 96 99
127 96 102 111 99 45 50 60 47 90 45 35 28 36 64 32 29 34 43 48 61 69 92 99 98 103 103 103 115 129 115 116 90 87 93 96 93 95 89 85 89 97 103 113
123 116 71 94 78 12 54 83 73 41 57 49 36 37 43 28 47 41 43 71 105 121 131 119 143 135 115 115 134 129 120 93 93 100 106 99 88 83 79 83 86 96 104 102
128 136 101 93 55 75 63 69 55 49 42 58 60 43 49 48 35 55 56 80 104 134 145 142 164 159 132 118 115 138 102 93 104 106 103 92 86 78 73 75 82 86 87 82
170 206 176 150 56 84 61 81 87 96 49 82 61 58 71 50 54 63 81 103 137 154 170 165 178 167 160 140 133 136 111 106 109 109 92 83 79 72 63 64 67 68 75 67
216 281 266 163 56 89 98 105 96 122 98 35 55 67 67 76 79 97 108 118 132 162 178 173 167 166 168 161 158 125 112 107 117 99 86 80 75 71 67 66 63 73 69 63
329 365 373 232 153 117 72 92 89 106 129 129 149 97 97 87 97 129 121 122 155 172 183 184 175 186 171 160 150 119 100 98 103 100 84 77 78 67 69 62 72 63 55 44

GFSCGP_con_3kmhel_117.txt.gz
Helicity
74 28 75 29 32 29 37 39 43 37 75 -41 18 30 78 50 30 60 127 109 94 52 58 83 76 59 60 85 124 31 176 141 162 179 125 117 104 102 118 99 79 101 123 124
86 80 58 37 42 42 34 38 20 41 91 50 -16 84 62 67 103 80 39 72 103 117 99 33 34 53 29 39 111 86 123 93 76 170 166 193 215 179 160 142 171 184 157 166
23 58 34 33 36 20 21 45 25 11 24 97 -38 175 75 132 106 74 118 147 100 129 96 122 70 79 42 26 54 102 41 106 116 122 211 264 302 312 277 161 164 178 170 197
23 48 32 27 39 29 27 -16 10 27 47 55 89 105 158 31 44 71 62 72 79 85 154 103 53 69 63 24 18 50 64 83 108 202 258 257 260 247 285 281 229 235 234 294
67 23 15 35 16 28 58 35 23 39 49 42 115 56 68 9 21 65 82 63 79 72 112 188 97 48 70 57 34 41 90 86 222 224 199 216 237 234 201 234 277 363 370 353
17 20 29 22 24 55 83 44 97 60 54 91 67 98 73 48 59 47 7 48 43 90 107 177 115 88 59 54 50 51 -26 136 194 200 143 195 148 209 212 199 204 252 305 363
34 51 27 16 18 78 1 16 52 48 57 67 32 92 151 49 59 35 28 34 53 94 135 212 74 58 38 95 96 94 101 120 145 134 222 211 238 138 75 153 216 294 324 298
67 68 16 1 14 27 27 24 75 84 69 69 74 110 108 65 108 55 -19 4 28 121 182 251 136 113 62 60 124 142 168 219 186 204 194 155 117 95 66 91 50 113 150 165
49 48 30 9 11 6 7 26 50 51 112 59 108 133 152 40 5 3 9 64 69 132 182 221 197 129 87 100 98 103 119 133 139 152 133 102 108 114 25 0 17 0 15 7
37 37 53 28 24 45 21 34 56 90 77 52 96 138 97 31 -7 1 -3 52 130 147 169 190 207 202 215 190 157 174 161 141 173 141 127 124 77 145 29 10 8 20 25 50
18 38 86 39 53 24 43 36 38 47 64 56 35 135 82 75 0 -12 -3 41 73 97 140 202 159 204 233 242 206 186 230 196 212 193 154 114 79 73 78 89 74 92 77 68
44 22 45 70 70 39 23 24 15 32 31 54 74 151 66 81 11 4 4 1 24 39 78 113 137 154 196 216 222 190 175 183 140 93 84 69 78 67 85 113 100 89 61 49
43 68 32 121 51 45 36 29 15 16 36 54 36 86 53 56 20 22 18 2 20 48 34 64 60 116 123 159 159 134 140 147 97 93 104 108 115 113 95 98 80 48 76 70
30 32 27 32 76 46 32 18 35 9 28 -30 35 32 72 45 46 52 41 29 31 -10 9 31 42 63 60 101 105 84 61 61 87 93 127 134 105 96 83 88 100 95 101 110
28 17 47 29 36 26 23 25 21 44 27 12 -33 9 31 48 47 37 44 46 33 -18 -8 -2 12 20 32 63 69 65 75 98 94 104 115 97 75 84 97 102 114 122 121 125
50 23 29 7 54 62 42 33 32 30 18 20 17 20 40 80 66 43 39 40 32 18 11 17 25 32 41 53 60 71 76 75 77 87 91 97 98 95 92 93 90 98 102 114
49 37 23 13 51 25 46 45 43 39 21 23 16 12 64 63 56 52 49 39 38 35 32 29 36 49 59 62 62 67 69 69 76 71 59 58 62 65 64 65 69 71 86 87
54 43 39 13 10 27 95 70 37 36 23 19 10 21 28 38 41 42 47 49 52 50 50 51 52 59 62 71 78 80 79 75 67 68 73 75 74 80 87 87 88 82 78 82
58 56 43 36 29 6 65 68 49 64 61 31 31 35 35 56 54 37 44 42 68 72 64 55 53 57 62 69 76 85 86 83 85 88 86 83 86 95 99 92 82 82 81 70
69 45 62 71 49 34 146 83 57 40 48 80 53 60 56 62 23 12 89 60 83 81 83 88 86 78 73 72 76 81 78 81 88 88 88 93 103 87 77 76 75 67 58 58
151 112 75 59 72 41 119 102 54 62 108 56 50 67 65 40 68 99 80 79 87 98 106 100 88 79 85 82 76 74 79 94 101 92 92 94 91 82 70 60 61 57 57 52
159 168 150 110 103 66 148 111 56 97 70 69 67 74 65 40 76 79 71 86 102 121 125 112 103 101 100 90 88 92 97 106 98 98 97 100 86 73 62 55 57 57 62 59
216 203 180 123 98 123 87 106 104 69 85 79 70 77 66 57 61 72 76 81 96 125 136 128 122 131 110 99 91 104 131 112 106 109 109 108 87 72 67 59 61 65 68 74
159 184 210 148 75 104 101 57 89 105 77 84 90 89 79 71 63 82 85 84 90 124 160 164 173 156 139 119 109 131 127 126 115 114 118 109 86 77 69 68 73 71 71 78
247 235 196 120 109 159 115 78 59 94 78 69 79 83 55 56 71 68 78 86 92 125 171 199 198 172 161 152 145 163 133 127 120 117 119 115 103 70 73 76 82 78 96 89
334 266 294 183 77 78 67 82 80 86 90 83 96 74 71 69 77 100 106 106 122 150 210 202 201 203 201 172 178 153 136 120 120 118 118 116 105 83 81 80 91 95 95 82